Time,TemperatureF,DewpointF,PressureIn,WindDirection,WindDirectionDegrees,WindSpeedMPH,WindSpeedGustMPH,Humidity,HourlyPrecipIn,Conditions,Clouds,dailyrainin,SoftwareType,DateUTC
2013-01-22 00:08:00,45.1,42.0,30.23,NW,323,0.0,0.0,90,0.00,,,0.00,weatherlink.com 1.10,2013-01-22 06:08:00,
2013-01-22 00:24:00,44.5,42.0,30.24,NW,323,0.0,1.0,90,0.00,,,0.00,weatherlink.com 1.10,2013-01-22 06:24:00,
2013-01-22 00:39:00,44.2,42.0,30.25,NW,323,0.0,0.0,90,0.00,,,0.00,weatherlink.com 1.10,2013-01-22 06:39:00,
2013-01-22 00:54:00,44.3,42.0,30.25,South,186,0.0,3.0,90,0.00,,,0.00,weatherlink.com 1.10,2013-01-22 06:54:00,
2013-01-22 01:09:00,44.3,42.0,30.25,South,186,0.0,0.0,90,0.00,,,0.00,weatherlink.com 1.10,2013-01-22 07:09:00,
2013-01-22 01:24:00,44.1,41.0,30.25,South,186,0.0,0.0,90,0.00,,,0.00,weatherlink.com 1.10,2013-01-22 07:24:00,
2013-01-22 01:39:00,44.0,41.0,30.25,South,187,0.0,1.0,90,0.00,,,0.00,weatherlink.com 1.10,2013-01-22 07:39:00,
2013-01-22 01:54:00,43.6,41.0,30.25,South,188,0.0,2.0,89,0.00,,,0.00,weatherlink.com 1.10,2013-01-22 07:54:00,
2013-01-22 02:09:00,43.4,40.0,30.25,South,190,0.0,0.0,87,0.00,,,0.00,weatherlink.com 1.10,2013-01-22 08:09:00,
2013-01-22 02:24:00,43.1,39.0,30.25,South,189,0.0,1.0,86,0.00,,,0.00,weatherlink.com 1.10,2013-01-22 08:24:00,
2013-01-22 02:39:00,42.9,39.0,30.25,South,190,0.0,1.0,86,0.00,,,0.00,weatherlink.com 1.10,2013-01-22 08:39:00,
2013-01-22 02:54:00,42.3,39.0,30.26,South,190,0.0,0.0,87,0.00,,,0.00,weatherlink.com 1.10,2013-01-22 08:54:00,
2013-01-22 03:09:00,41.6,38.0,30.26,South,190,0.0,0.0,87,0.00,,,0.00,weatherlink.com 1.10,2013-01-22 09:09:00,
2013-01-22 03:24:00,41.1,38.0,30.26,South,190,0.0,1.0,88,0.00,,,0.00,weatherlink.com 1.10,2013-01-22 09:24:00,
2013-01-22 03:39:00,41.0,38.0,30.27,South,190,0.0,1.0,88,0.00,,,0.00,weatherlink.com 1.10,2013-01-22 09:39:00,
2013-01-22 03:54:00,40.7,38.0,30.27,South,190,0.0,1.0,88,0.00,,,0.00,weatherlink.com 1.10,2013-01-22 09:54:00,
2013-01-22 04:09:00,40.5,37.0,30.27,South,190,0.0,1.0,87,0.00,,,0.00,weatherlink.com 1.10,2013-01-22 10:09:00,
2013-01-22 04:24:00,40.3,37.0,30.27,South,191,0.0,0.0,87,0.00,,,0.00,weatherlink.com 1.10,2013-01-22 10:24:00,
2013-01-22 04:39:00,40.3,37.0,30.27,South,190,0.0,1.0,87,0.00,,,0.00,weatherlink.com 1.10,2013-01-22 10:39:00,
2013-01-22 04:54:00,40.1,37.0,30.27,South,191,0.0,0.0,87,0.00,,,0.00,weatherlink.com 1.10,2013-01-22 10:54:00,
2013-01-22 05:09:00,39.7,37.0,30.27,South,191,0.0,2.0,88,0.00,,,0.00,weatherlink.com 1.10,2013-01-22 11:09:00,
2013-01-22 05:24:00,39.4,36.0,30.28,South,191,0.0,1.0,87,0.00,,,0.00,weatherlink.com 1.10,2013-01-22 11:24:00,
2013-01-22 05:39:00,38.8,36.0,30.29,South,191,0.0,0.0,88,0.00,,,0.00,weatherlink.com 1.10,2013-01-22 11:39:00,
2013-01-22 05:54:00,38.7,36.0,30.29,South,191,0.0,0.0,89,0.00,,,0.00,weatherlink.com 1.10,2013-01-22 11:54:00,
2013-01-22 06:09:00,38.4,36.0,30.29,South,191,0.0,0.0,89,0.00,,,0.00,weatherlink.com 1.10,2013-01-22 12:09:00,
2013-01-22 06:24:00,38.4,36.0,30.29,SSW,205,0.0,3.0,89,0.00,,,0.00,weatherlink.com 1.10,2013-01-22 12:24:00,
2013-01-22 06:39:00,38.7,35.0,30.30,SSW,201,0.0,2.0,87,0.00,,,0.00,weatherlink.com 1.10,2013-01-22 12:39:00,
2013-01-22 06:54:00,38.6,35.0,30.31,SSW,201,0.0,1.0,86,0.00,,,0.00,weatherlink.com 1.10,2013-01-22 12:54:00,
2013-01-22 07:09:00,38.5,34.0,30.31,WNW,291,0.0,2.0,85,0.00,,,0.00,weatherlink.com 1.10,2013-01-22 13:09:00,
2013-01-22 07:24:00,38.5,34.0,30.32,WSW,243,0.0,1.0,84,0.00,,,0.00,weatherlink.com 1.10,2013-01-22 13:24:00,
2013-01-22 07:39:00,38.8,34.0,30.32,WSW,242,0.0,1.0,83,0.00,,,0.00,weatherlink.com 1.10,2013-01-22 13:39:00,
2013-01-22 07:54:00,38.6,34.0,30.32,SW,226,0.0,2.0,84,0.00,,,0.00,weatherlink.com 1.10,2013-01-22 13:54:00,
2013-01-22 08:09:00,38.9,34.0,30.32,SW,220,0.0,2.0,83,0.00,,,0.00,weatherlink.com 1.10,2013-01-22 14:09:00,
2013-01-22 08:24:00,40.5,34.0,30.32,SSE,159,0.0,4.0,77,0.00,,,0.00,weatherlink.com 1.10,2013-01-22 14:24:00,
2013-01-22 08:39:00,41.0,33.0,30.33,SSE,155,1.0,5.0,74,0.00,,,0.00,weatherlink.com 1.10,2013-01-22 14:39:00,
2013-01-22 08:54:00,42.4,34.0,30.34,ESE,122,0.0,6.0,71,0.00,,,0.00,weatherlink.com 1.10,2013-01-22 14:54:00,
2013-01-22 09:09:00,43.3,34.0,30.34,SSE,163,1.0,2.0,70,0.00,,,0.00,weatherlink.com 1.10,2013-01-22 15:09:00,
2013-01-22 09:24:00,44.8,35.0,30.34,SSE,161,0.0,2.0,69,0.00,,,0.00,weatherlink.com 1.10,2013-01-22 15:24:00,
2013-01-22 09:40:00,46.8,37.0,30.35,South,177,0.0,3.0,68,0.00,,,0.00,weatherlink.com 1.10,2013-01-22 15:40:00,
2013-01-22 09:55:00,48.2,36.0,30.34,SSE,159,0.0,4.0,62,0.00,,,0.00,weatherlink.com 1.10,2013-01-22 15:55:00,
2013-01-22 10:10:00,49.5,37.0,30.34,SE,138,0.0,3.0,62,0.00,,,0.00,weatherlink.com 1.10,2013-01-22 16:10:00,
2013-01-22 10:25:00,50.3,38.0,30.35,South,176,0.0,3.0,64,0.00,,,0.00,weatherlink.com 1.10,2013-01-22 16:25:00,
2013-01-22 10:40:00,51.0,38.0,30.35,South,191,2.0,4.0,62,0.00,,,0.00,weatherlink.com 1.10,2013-01-22 16:40:00,
2013-01-22 10:55:00,52.3,38.0,30.34,SSE,149,0.0,4.0,59,0.00,,,0.00,weatherlink.com 1.10,2013-01-22 16:55:00,
2013-01-22 11:10:00,53.9,40.0,30.34,ESE,120,0.0,3.0,59,0.00,,,0.00,weatherlink.com 1.10,2013-01-22 17:10:00,
2013-01-22 11:25:00,55.0,42.0,30.34,SSE,151,0.0,3.0,61,0.00,,,0.00,weatherlink.com 1.10,2013-01-22 17:25:00,
2013-01-22 11:40:00,55.6,41.0,30.33,SE,139,2.0,6.0,59,0.00,,,0.00,weatherlink.com 1.10,2013-01-22 17:40:00,
2013-01-22 11:55:00,56.2,42.0,30.32,SSE,163,0.0,5.0,60,0.00,,,0.00,weatherlink.com 1.10,2013-01-22 17:55:00,
2013-01-22 12:10:00,57.5,43.0,30.30,South,172,0.0,4.0,59,0.00,,,0.00,weatherlink.com 1.10,2013-01-22 18:10:00,
2013-01-22 12:25:00,59.2,44.0,30.29,South,170,0.0,4.0,57,0.00,,,0.00,weatherlink.com 1.10,2013-01-22 18:25:00,
2013-01-22 12:40:00,60.0,44.0,30.28,SSE,162,0.0,3.0,57,0.00,,,0.00,weatherlink.com 1.10,2013-01-22 18:40:00,
2013-01-22 12:55:00,60.8,44.0,30.28,SE,136,2.0,5.0,55,0.00,,,0.00,weatherlink.com 1.10,2013-01-22 18:55:00,
2013-01-22 13:10:00,61.2,46.0,30.27,SSE,159,0.0,4.0,58,0.00,,,0.00,weatherlink.com 1.10,2013-01-22 19:10:00,
2013-01-22 13:25:00,62.4,46.0,30.26,SE,145,2.0,4.0,56,0.00,,,0.00,weatherlink.com 1.10,2013-01-22 19:25:00,
2013-01-22 13:40:00,63.1,46.0,30.25,South,179,0.0,4.0,55,0.00,,,0.00,weatherlink.com 1.10,2013-01-22 19:40:00,
2013-01-22 13:55:00,64.9,47.0,30.24,South,181,3.0,4.0,53,0.00,,,0.00,weatherlink.com 1.10,2013-01-22 19:55:00,
2013-01-22 14:10:00,65.6,47.0,30.24,WNW,290,1.0,4.0,52,0.00,,,0.00,weatherlink.com 1.10,2013-01-22 20:10:00,
2013-01-22 14:25:00,66.3,47.0,30.24,WNW,303,0.0,5.0,51,0.00,,,0.00,weatherlink.com 1.10,2013-01-22 20:25:00,
2013-01-22 14:40:00,66.9,48.0,30.24,SSE,148,0.0,5.0,51,0.00,,,0.00,weatherlink.com 1.10,2013-01-22 20:40:00,
2013-01-22 14:55:00,68.1,49.0,30.24,SE,142,0.0,2.0,51,0.00,,,0.00,weatherlink.com 1.10,2013-01-22 20:55:00,
2013-01-22 15:10:00,67.1,48.0,30.24,ENE,71,0.0,5.0,51,0.00,,,0.00,weatherlink.com 1.10,2013-01-22 21:10:00,
2013-01-22 15:25:00,67.5,49.0,30.24,South,180,1.0,2.0,51,0.00,,,0.00,weatherlink.com 1.10,2013-01-22 21:25:00,
2013-01-22 15:40:00,67.7,49.0,30.24,WNW,282,0.0,4.0,51,0.00,,,0.00,weatherlink.com 1.10,2013-01-22 21:40:00,
2013-01-22 15:56:00,67.2,48.0,30.24,WNW,282,0.0,1.0,51,0.00,,,0.00,weatherlink.com 1.10,2013-01-22 21:56:00,
2013-01-22 16:41:00,64.3,49.0,30.24,WNW,282,0.0,0.0,59,0.00,,,0.00,weatherlink.com 1.10,2013-01-22 22:41:00,
2013-01-22 16:56:00,63.7,50.0,30.24,WNW,283,0.0,0.0,61,0.00,,,0.00,weatherlink.com 1.10,2013-01-22 22:56:00,
2013-01-22 17:11:00,63.0,49.0,30.24,WNW,283,0.0,0.0,61,0.00,,,0.00,weatherlink.com 1.10,2013-01-22 23:11:00,
2013-01-22 17:26:00,61.8,49.0,30.24,WNW,283,0.0,0.0,64,0.00,,,0.00,weatherlink.com 1.10,2013-01-22 23:26:00,
2013-01-22 17:41:00,60.0,49.0,30.24,WNW,282,0.0,0.0,68,0.00,,,0.00,weatherlink.com 1.10,2013-01-22 23:41:00,
2013-01-22 17:56:00,58.1,51.0,30.24,WNW,282,0.0,0.0,76,0.00,,,0.00,weatherlink.com 1.10,2013-01-22 23:56:00,
2013-01-22 18:11:00,57.1,50.0,30.24,WNW,283,0.0,0.0,78,0.00,,,0.00,weatherlink.com 1.10,2013-01-23 00:11:00,
2013-01-22 18:26:00,56.2,50.0,30.24,WNW,282,0.0,0.0,80,0.00,,,0.00,weatherlink.com 1.10,2013-01-23 00:26:00,
2013-01-22 18:41:00,55.2,50.0,30.24,WNW,283,0.0,0.0,81,0.00,,,0.00,weatherlink.com 1.10,2013-01-23 00:41:00,
2013-01-22 18:56:00,54.1,49.0,30.24,WNW,283,0.0,0.0,83,0.00,,,0.00,weatherlink.com 1.10,2013-01-23 00:56:00,
2013-01-22 19:11:00,53.5,49.0,30.25,WNW,283,0.0,0.0,85,0.00,,,0.00,weatherlink.com 1.10,2013-01-23 01:11:00,
2013-01-22 19:26:00,52.7,49.0,30.25,WNW,282,0.0,0.0,87,0.00,,,0.00,weatherlink.com 1.10,2013-01-23 01:26:00,
2013-01-22 19:41:00,51.9,49.0,30.25,WNW,283,0.0,0.0,88,0.00,,,0.00,weatherlink.com 1.10,2013-01-23 01:41:00,
2013-01-22 19:56:00,51.0,48.0,30.25,WNW,283,0.0,0.0,88,0.00,,,0.00,weatherlink.com 1.10,2013-01-23 01:56:00,
2013-01-22 20:11:00,50.3,47.0,30.26,WNW,283,0.0,0.0,88,0.00,,,0.00,weatherlink.com 1.10,2013-01-23 02:11:00,
2013-01-22 20:26:00,49.7,47.0,30.26,WNW,283,0.0,0.0,89,0.00,,,0.00,weatherlink.com 1.10,2013-01-23 02:26:00,
2013-01-22 20:41:00,49.5,46.0,30.27,WNW,283,0.0,0.0,89,0.00,,,0.00,weatherlink.com 1.10,2013-01-23 02:41:00,
2013-01-22 20:56:00,49.0,46.0,30.27,WNW,282,0.0,0.0,90,0.00,,,0.00,weatherlink.com 1.10,2013-01-23 02:56:00,
2013-01-22 21:11:00,48.6,46.0,30.28,WNW,282,0.0,0.0,90,0.00,,,0.00,weatherlink.com 1.10,2013-01-23 03:11:00,
2013-01-22 21:26:00,48.3,46.0,30.28,WNW,283,0.0,0.0,90,0.00,,,0.00,weatherlink.com 1.10,2013-01-23 03:26:00,
2013-01-22 21:41:00,47.9,45.0,30.28,WNW,283,0.0,0.0,90,0.00,,,0.00,weatherlink.com 1.10,2013-01-23 03:41:00,
2013-01-22 21:56:00,47.6,45.0,30.28,WNW,283,0.0,0.0,90,0.00,,,0.00,weatherlink.com 1.10,2013-01-23 03:56:00,
2013-01-22 22:11:00,47.2,45.0,30.28,WNW,283,0.0,0.0,90,0.00,,,0.00,weatherlink.com 1.10,2013-01-23 04:11:00,
2013-01-22 22:26:00,46.8,44.0,30.29,WNW,283,0.0,0.0,90,0.00,,,0.00,weatherlink.com 1.10,2013-01-23 04:26:00,
2013-01-22 22:41:00,46.5,44.0,30.29,WNW,282,0.0,0.0,90,0.00,,,0.00,weatherlink.com 1.10,2013-01-23 04:41:00,
2013-01-22 22:56:00,46.1,43.0,30.29,WNW,282,0.0,0.0,90,0.00,,,0.00,weatherlink.com 1.10,2013-01-23 04:56:00,
2013-01-22 23:11:00,45.9,43.0,30.29,WNW,283,0.0,0.0,90,0.00,,,0.00,weatherlink.com 1.10,2013-01-23 05:11:00,
2013-01-22 23:26:00,45.9,43.0,30.28,WNW,283,0.0,0.0,90,0.00,,,0.00,weatherlink.com 1.10,2013-01-23 05:26:00,
2013-01-22 23:57:00,46.2,44.0,30.28,WNW,283,0.0,0.0,90,0.00,,,0.00,weatherlink.com 1.10,2013-01-23 05:57:00,